Southbury, CT

2:37 AM EST on February 22, 2017 (GMT -0500)
Waterbury-Oxford

Weather History for KOXC - November, 2011

Change the Weather History Date:

Sunday, November 20, 2011

  Actual Average Record
Temperature  
Mean Temperature 53 °F -  
Max Temperature 64 °F 45 °F 64 °F (2011)
Min Temperature 42 °F 31 °F 17 °F (2000)
Degree Days  
Heating Degree Days 12    
Growing Degree Days 3 (Base 50)    
Moisture  
Dew Point 41 °F    
Average Humidity 73    
Maximum Humidity 87    
Minimum Humidity 49    
Precipitation  
Precipitation 0.00 in - - ()
Sea Level Pressure  
Sea Level Pressure 30.15 in    
Wind  
Wind Speed 5 mph (SW)    
Max Wind Speed 9 mph    
Max Gust Speed 21 mph    
Visibility 10 miles    
Events      
Averages and records for this station are not official NWS values.
T = Trace of Precipitation, MM = Missing Value Source: NWS Daily Summary

Daily Weather History Graph

Daily Weather History Graph

Search for Another Location

Airport or City:

Trip Planner

Search our weather history database for the weather conditions in past years. The results will help you decide how hot, cold, wet, or windy it might be!

Date:

Astronomy

Nov. 20, 2011 Rise Set
Actual Time 6:46 AM EST 4:29 PM EST
Civil Twilight 6:16 AM EST 4:59 PM EST
Nautical Twilight 5:42 AM EST 5:32 PM EST
Astronomical Twilight 5:09 AM EST 6:05 PM EST
Moon 1:08 AM EST (11/20) 1:19 PM EST (11/20)
Length of Visible Light 10h 42m
Length of Day
9h 42m
Waning Crescent, 27% of the Moon is Illuminated
Nov 20
Waning Crescent
Nov 25
New
Dec 2
First Quarter
Dec 10
Full
Dec 17
Last Quarter

Hourly Weather History & Observations

Time (EST) Temp. Windchill Dew Point Humidity Pressure Visibility Wind Dir Wind Speed Gust Speed Precip Events Conditions
12:15 AM 44.6 °F 40.7 °F 39.2 °F 81% 30.25 in 10.0 mi SW 6.9 mph - N/A   Partly Cloudy
12:35 AM 44.6 °F 41.4 °F 39.2 °F 81% 30.25 in 10.0 mi SSW 5.8 mph - N/A   Partly Cloudy
1:15 AM 44.6 °F 41.4 °F 39.2 °F 81% 30.24 in 10.0 mi SSW 5.8 mph - N/A   Clear
1:35 AM 42.8 °F 40.1 °F 37.4 °F 81% 30.23 in 10.0 mi South 4.6 mph - N/A   Clear
1:55 AM 42.8 °F 38.6 °F 39.2 °F 87% 30.22 in 10.0 mi South 6.9 mph - N/A   Clear
2:35 AM 44.6 °F 43.1 °F 39.2 °F 81% 30.20 in 10.0 mi SSW 3.5 mph - N/A   Clear
2:55 AM 44.6 °F 41.4 °F 37.4 °F 76% 30.20 in 10.0 mi SSW 5.8 mph - N/A   Mostly Cloudy
3:15 AM 44.6 °F 43.1 °F 37.4 °F 76% 30.19 in 10.0 mi SW 3.5 mph - N/A   Mostly Cloudy
3:35 AM 44.6 °F 43.1 °F 39.2 °F 81% 30.18 in 10.0 mi SW 3.5 mph - N/A   Mostly Cloudy
3:55 AM 44.6 °F 41.4 °F 39.2 °F 81% 30.17 in 10.0 mi SSW 5.8 mph - N/A   Mostly Cloudy
4:15 AM 44.6 °F 41.4 °F 39.2 °F 81% 30.17 in 10.0 mi SSW 5.8 mph - N/A   Mostly Cloudy
4:35 AM 44.6 °F 42.2 °F 39.2 °F 81% 30.17 in 10.0 mi SW 4.6 mph - N/A   Overcast
4:55 AM 44.6 °F 41.4 °F 39.2 °F 81% 30.16 in 10.0 mi SW 5.8 mph - N/A   Overcast
5:15 AM 44.6 °F 40.7 °F 39.2 °F 81% 30.15 in 10.0 mi SSW 6.9 mph - N/A   Overcast
5:35 AM 44.6 °F 42.2 °F 39.2 °F 81% 30.15 in 10.0 mi SW 4.6 mph - N/A   Scattered Clouds
5:45 AM 44.6 °F 41.4 °F 39.2 °F 81% 30.15 in 10.0 mi WSW 5.8 mph - N/A   Mostly Cloudy
7:45 AM 44.6 °F 40.7 °F 39.2 °F 81% 30.15 in 10.0 mi SW 6.9 mph - N/A   Clear
8:45 AM 48.2 °F - 41.0 °F 76% 30.13 in 10.0 mi WSW 5.8 mph - N/A   Mostly Cloudy
9:45 AM 53.6 °F - 42.8 °F 67% 30.13 in 10.0 mi WSW 8.1 mph - N/A   Clear
10:45 AM 55.4 °F - 42.8 °F 63% 30.11 in 10.0 mi WSW 6.9 mph 18.4 mph N/A   Clear
11:45 AM 59.0 °F - 42.8 °F 55% 30.09 in 10.0 mi West 8.1 mph 18.4 mph N/A   Clear
1:45 PM 62.6 °F - 44.6 °F 52% 30.06 in 10.0 mi West 9.2 mph 20.7 mph N/A   Clear
2:45 PM 64.4 °F - 44.6 °F 49% 30.05 in 10.0 mi West 4.6 mph 16.1 mph N/A   Clear
3:45 PM 64.4 °F - 44.6 °F 49% 30.07 in 10.0 mi WSW 6.9 mph - N/A   Clear
4:45 PM 59.0 °F - 44.6 °F 59% 30.08 in 10.0 mi West 6.9 mph - N/A   Clear
7:45 PM 55.4 °F - 44.6 °F 67% 30.11 in 10.0 mi WSW 3.5 mph - N/A   Clear
8:55 PM 53.6 °F - 44.6 °F 72% 30.12 in 10.0 mi WSW 6.9 mph - N/A   Clear
9:15 PM 53.6 °F - 44.6 °F 72% 30.12 in 10.0 mi WSW 4.6 mph - N/A   Clear
9:35 PM 53.6 °F - 44.6 °F 72% 30.12 in 10.0 mi WSW 4.6 mph - N/A   Clear
10:15 PM 53.6 °F - 44.6 °F 72% 30.11 in 10.0 mi Calm Calm - N/A   Clear
10:35 PM 53.6 °F - 44.6 °F 72% 30.12 in 10.0 mi Calm Calm - N/A   Clear
10:55 PM 51.8 °F - 44.6 °F 76% 30.12 in 10.0 mi Calm Calm - N/A   Clear
11:35 PM 53.6 °F - 44.6 °F 72% 30.14 in 10.0 mi NNE 5.8 mph - N/A   Clear
11:56 PM 51.8 °F - 44.6 °F 76% 30.13 in 10.0 mi Calm Calm - N/A   Clear